Date String (YYYY-MM-DD hh:mm:ss) UTC,Instrument flags,absolute air pressure of the measurement (hPa),sample flow rate (lpm),inlet stack bypass flow (lpm),air temperature of the measurement (°C),ambient temperature measured by the external sensor (°C),aerosol sample conditioner tube jacket temperature (°C),OPC LED temperature (°C),internal box temperature (°C),relative humidity of the measurement (%),span deviation,mass concentration of particles derived from Lorenz-Mie calculation of OPC scattering (μg/m³),mass concentration of particles derived from Lorenz-Mie calculation of OPC scattering (μg/m³),mass concentration of particles derived from Lorenz-Mie calculation of OPC scattering (μg/m³)
DateTimeUTC,F1_M11,P_M11,Q1_M11,Q2_M11,T1_M11,T2_M11,T3_M11,T4_M11,T5_M11,U1_M11,ZSPAN_M11,X0_M11,X2_M11,X1_M11
2024-05-18 08:00:00,SystemResetWarning,0824.4,5.00,000.00,025.0,024.4,000.0,032.9,026.8,017.6,0000.0,0011.09,0003.86,0002.92
2024-05-18 08:01:00,SystemResetWarning,0824.4,5.00,000.00,025.0,024.4,000.0,033.0,026.8,017.4,0000.0,0010.14,0003.86,0002.91
2024-05-18 08:02:00,SystemResetWarning,0824.4,5.01,000.00,025.0,024.5,000.0,033.0,026.9,017.4,0000.0,0009.59,0003.86,0002.91
2024-05-18 08:03:00,SystemResetWarning,0824.4,5.00,000.00,025.1,024.6,000.0,033.0,026.9,017.3,0000.0,0008.79,0003.84,0002.90
2024-05-18 08:04:00,SystemResetWarning,0824.4,5.00,000.00,025.1,024.6,000.0,033.1,026.9,017.3,0000.0,0008.90,0003.83,0002.90
2024-05-18 08:05:00,SystemResetWarning,0824.5,5.00,000.00,025.2,024.6,000.0,033.1,027.0,017.2,0000.0,0009.67,0003.81,0002.90
2024-05-18 08:06:00,SystemResetWarning,0824.4,5.00,000.00,025.2,024.7,000.0,033.1,027.0,017.2,0000.0,0009.57,0003.78,0002.89
2024-05-18 08:07:00,SystemResetWarning,0824.5,5.00,000.00,025.2,024.7,000.0,033.2,027.1,017.1,0000.0,0009.43,0003.75,0002.88
2024-05-18 08:08:00,SystemResetWarning,0824.5,5.00,000.00,025.3,024.7,000.0,033.2,027.1,017.2,0000.0,0009.52,0003.80,0002.89
2024-05-18 08:09:00,SystemResetWarning,0824.5,4.99,000.00,025.3,024.8,000.0,033.2,027.1,017.2,0000.0,0009.93,0003.83,0002.88
2024-05-18 08:10:00,SystemResetWarning,0824.5,5.00,000.00,025.3,024.8,000.0,033.3,027.2,017.0,0000.0,0010.23,0003.86,0002.88
2024-05-18 08:11:00,SystemResetWarning,0824.5,5.00,000.00,025.4,024.8,000.0,033.3,027.2,016.8,0000.0,0010.83,0003.85,0002.90
2024-05-18 08:12:00,SystemResetWarning,0824.4,5.00,000.00,025.4,024.8,000.0,033.3,027.2,016.8,0000.0,0011.25,0003.82,0002.92
2024-05-18 08:13:00,SystemResetWarning,0824.4,4.99,000.00,025.2,023.4,000.0,033.4,026.4,016.7,0000.0,0010.87,0003.83,0002.94
2024-05-18 08:14:00,SystemResetWarning,0824.4,5.03,000.00,024.8,021.8,000.0,033.4,025.5,017.2,0000.0,0010.95,0003.86,0002.96
2024-05-18 08:15:00,SystemResetWarning,0824.3,5.00,000.00,024.6,021.8,000.0,033.4,025.4,017.4,0000.0,0011.01,0003.89,0002.98
2024-05-18 08:16:00,SystemResetWarning,0824.4,5.00,000.00,024.5,022.2,000.0,033.2,025.5,017.5,0000.0,0009.91,0003.87,0003.02
2024-05-18 08:17:00,SystemResetWarning,0824.4,5.00,000.00,024.5,022.5,000.0,033.1,025.8,017.4,0000.0,0009.95,0003.89,0003.04
2024-05-18 08:18:00,SystemResetWarning,0824.5,5.01,000.00,024.5,022.8,000.0,033.0,026.0,017.5,0000.0,0010.06,0003.92,0003.05
2024-05-18 08:19:00,SystemResetWarning,0824.5,4.99,000.00,024.6,023.1,000.0,033.0,026.2,017.4,0000.0,0009.96,0003.90,0003.06
2024-05-18 08:20:00,SystemResetWarning,0824.5,5.00,000.00,024.6,023.4,000.0,033.0,026.3,017.4,0000.0,0009.51,0003.88,0003.09
2024-05-18 08:21:00,SystemResetWarning,0824.5,5.00,000.00,024.6,023.6,000.0,032.9,026.3,017.4,0000.0,0009.17,0003.85,0003.10
2024-05-18 08:22:00,SystemResetWarning,0824.5,5.00,000.00,024.7,023.7,000.0,032.9,026.5,017.2,0000.0,0009.02,0003.85,0003.10
2024-05-18 08:23:00,SystemResetWarning,0824.5,5.00,000.00,024.7,023.9,000.0,032.9,026.5,017.2,0000.0,0009.06,0003.88,0003.12
2024-05-18 08:24:00,SystemResetWarning,0824.5,5.00,000.00,024.8,024.0,000.0,032.9,026.6,017.0,0000.0,0009.35,0003.94,0003.13
2024-05-18 08:25:00,SystemResetWarning,0824.5,5.00,000.00,024.8,024.1,000.0,032.9,026.6,017.0,0000.0,0009.38,0003.97,0003.14
2024-05-18 08:26:00,SystemResetWarning,0824.5,5.00,000.00,024.9,024.2,000.0,033.0,026.7,016.9,0000.0,0009.18,0003.95,0003.15
2024-05-18 08:27:00,SystemResetWarning,0824.5,5.00,000.00,024.9,024.3,000.0,033.0,026.7,016.9,0000.0,0009.28,0004.01,0003.15
2024-05-18 08:28:00,SystemResetWarning,0824.5,4.99,000.00,025.0,024.3,000.0,033.0,026.8,016.7,0000.0,0009.35,0004.06,0003.15
2024-05-18 08:29:00,SystemResetWarning,0824.4,5.00,000.00,025.0,024.4,000.0,033.0,026.8,016.6,0000.0,0009.29,0004.07,0003.17
2024-05-18 08:30:00,SystemResetWarning,0824.5,4.99,000.00,025.0,024.5,000.0,033.0,026.9,016.6,0000.0,0009.35,0004.11,0003.17
2024-05-18 08:31:00,SystemResetWarning,0824.5,4.99,000.00,025.1,024.5,000.0,033.1,026.9,016.6,0000.0,0009.49,0004.17,0003.18
2024-05-18 08:32:00,SystemResetWarning,0824.6,5.00,000.00,025.1,024.6,000.0,033.1,027.0,016.6,0000.0,0009.57,0004.22,0003.18
2024-05-18 08:33:00,SystemResetWarning,0824.5,5.00,000.00,025.1,024.6,000.0,033.1,027.0,016.6,0000.0,0009.38,0004.25,0003.18
2024-05-18 08:34:00,SystemResetWarning,0824.6,5.00,000.00,025.2,024.6,000.0,033.1,027.0,016.5,0000.0,0008.83,0004.28,0003.18
2024-05-18 08:35:00,SystemResetWarning,0824.6,5.01,000.00,025.2,024.7,000.0,033.2,027.0,016.4,0000.0,0008.93,0004.29,0003.18
2024-05-18 08:36:00,SystemResetWarning,0824.6,5.00,000.00,025.3,024.7,000.0,033.2,027.1,016.2,0000.0,0009.01,0004.31,0003.18
2024-05-18 08:37:00,SystemResetWarning,0824.6,5.00,000.00,025.3,024.7,000.0,033.2,027.1,016.1,0000.0,0009.02,0004.37,0003.19
2024-05-18 08:38:00,SystemResetWarning,0824.6,5.00,000.00,025.3,024.8,000.0,033.2,027.1,016.1,0000.0,0009.07,0004.38,0003.19
2024-05-18 08:39:00,SystemResetWarning,0824.7,5.00,000.00,025.3,024.8,000.0,033.3,027.2,016.0,0000.0,0009.21,0004.40,0003.20
2024-05-18 08:40:00,SystemResetWarning,0824.7,5.00,000.00,025.4,024.8,000.0,033.3,027.2,016.1,0000.0,0010.08,0004.46,0003.20
2024-05-18 08:41:00,SystemResetWarning,0824.7,5.00,000.00,025.4,024.8,000.0,033.3,027.2,016.1,0000.0,0010.40,0004.44,0003.20
2024-05-18 08:42:00,SystemResetWarning,0824.7,5.01,000.00,025.4,024.9,000.0,033.4,027.2,016.0,0000.0,0010.40,0004.41,0003.20
2024-05-18 08:43:00,SystemResetWarning,0824.7,5.00,000.00,025.5,024.9,000.0,033.4,027.2,015.9,0000.0,0010.63,0004.42,0003.21
2024-05-18 08:44:00,SystemResetWarning,0824.7,4.99,000.00,025.5,024.9,000.0,033.4,027.3,015.8,0000.0,0010.68,0004.44,0003.23
2024-05-18 08:45:00,SystemResetWarning,0824.7,4.99,000.00,025.5,024.9,000.0,033.4,027.3,015.8,0000.0,0010.75,0004.44,0003.23
2024-05-18 08:46:00,SystemResetWarning,0824.7,5.00,000.00,025.5,025.0,000.0,033.5,027.3,015.7,0000.0,0010.54,0004.39,0003.23
2024-05-18 08:47:00,SystemResetWarning,0824.7,5.01,000.00,025.5,025.0,000.0,033.5,027.3,015.8,0000.0,0010.35,0004.37,0003.23
2024-05-18 08:48:00,SystemResetWarning,0824.7,5.01,000.00,025.6,025.0,000.0,033.5,027.4,015.6,0000.0,0010.22,0004.33,0003.23
2024-05-18 08:49:00,SystemResetWarning,0824.7,5.00,000.00,025.6,025.0,000.0,033.5,027.4,015.7,0000.0,0010.51,0004.32,0003.23
2024-05-18 08:50:00,SystemResetWarning,0824.7,4.97,000.00,025.6,024.3,000.0,033.6,027.0,015.6,0000.0,0010.51,0004.27,0003.22
2024-05-18 08:51:00,SystemResetWarning,0824.7,5.01,000.00,025.1,022.0,000.0,033.6,025.8,015.6,0000.0,0009.97,0004.26,0003.22
2024-05-18 08:52:00,SystemResetWarning,0824.7,5.01,000.00,024.8,021.7,000.0,033.6,025.5,016.1,0000.0,0010.51,0004.36,0003.23
2024-05-18 08:53:00,SystemResetWarning,0824.7,5.00,000.00,024.7,022.1,000.0,033.5,025.6,016.4,0000.0,0010.65,0004.41,0003.23
2024-05-18 08:54:00,SystemResetWarning,0824.7,5.00,000.00,024.7,022.4,000.0,033.3,025.8,016.3,0000.0,0011.01,0004.43,0003.23
2024-05-18 08:55:00,SystemResetWarning,0824.7,4.99,000.00,024.7,022.8,000.0,033.2,026.1,016.1,0000.0,0011.34,0004.43,0003.24
2024-05-18 08:56:00,SystemResetWarning,0824.7,4.99,000.00,024.7,023.1,000.0,033.2,026.2,016.1,0000.0,0011.83,0004.45,0003.24
2024-05-18 08:57:00,SystemResetWarning,0824.7,5.01,000.00,024.7,023.3,000.0,033.1,026.4,016.1,0000.0,0011.96,0004.50,0003.23
2024-05-18 08:58:00,SystemResetWarning,0824.7,5.01,000.00,024.8,023.5,000.0,033.1,026.5,016.1,0000.0,0012.05,0004.51,0003.23
2024-05-18 08:59:00,SystemResetWarning,0824.8,4.99,000.00,024.8,023.7,000.0,033.1,026.5,015.9,0000.0,0012.17,0004.53,0003.24
